{"data":{"norad_id":48074,"intl_designator":"2021-025AJ","name":"ONEWEB-0177","alt_names":[],"object_type":"PAYLOAD","status":"ACTIVE","operator":null,"country":"UK","launch_date":"2021-03-25","launch_site_code":"VOSTO","launch_vehicle":null,"mission":null,"orbit_class":"UNKNOWN","rcs_meters":null,"size_class":null,"mass_kg":null,"dimensions":null,"purposes":["comms"],"wikipedia_slug":null,"has_3d_model":false,"image_url":null,"decayed_at":null,"tle_current":{"epoch":"2026-09-19T09:44:13.355232Z","epoch_age_seconds":105798,"freshness":"FRESH","line1":"1 48074U 21025AJ  26262.40571013  .00000345  00000+0  91090-3 0  9995","line2":"2 48074  87.8914 301.4790 0001744 102.4667 257.6658 13.13470209266045","mean_motion":13.13470209,"eccentricity":0.0001744,"inclination_deg":87.8914,"raan_deg":301.479,"arg_perigee_deg":102.4667,"mean_anomaly_deg":257.6658,"bstar":0.0009109,"rev_number":26604,"period_min":109.6332440685,"perigee_km":1208.441264935,"apogee_km":1211.0879250113,"semimajor_km":7587.9015949732,"source":"CELESTRAK","updated_at":"2026-09-20T09:00:44.591051Z"}}}